Date String (YYYY-MM-DD hh:mm:ss) UTC,Instrument flags,Ambient pressure (hPa),Sample flow (lpm),Bypass flow (lpm),Sample temperature (°C),Ambient temperature (°C),ASC tube jacket temperature (°C),LED temperature (°C),Box temperature (°C),Sample RH (%),Span deviation,Mass concentration (μg/m³),Mass concentration (μg/m³),Mass concentration (μg/m³)
DateTimeUTC,F1_M11,P_M11,Q1_M11,Q2_M11,T1_M11,T2_M11,T3_M11,T4_M11,T5_M11,U1_M11,ZSPAN_M11,X0_M11,X2_M11,X1_M11
2022-01-11 11:00:00,,0831.4,4.99,0.00,22.5,21.7,00.0,31.5,24.2,05.6,0000.0,0000.95,0000.47,0000.38
2022-01-11 11:01:00,,0831.4,5.01,0.00,22.5,21.7,00.0,31.5,24.2,05.7,0000.0,0000.99,0000.49,0000.38
2022-01-11 11:02:00,,0831.4,5.00,0.00,22.5,21.7,00.0,31.5,24.2,05.7,0000.0,0001.06,0000.53,0000.41
2022-01-11 11:03:00,,0831.4,5.00,0.00,22.5,21.7,00.0,31.5,24.2,05.6,0000.0,0001.07,0000.55,0000.42
2022-01-11 11:04:00,,0831.4,4.99,0.00,22.5,21.7,00.0,31.5,24.2,05.6,0000.0,0000.96,0000.54,0000.43
2022-01-11 11:05:00,,0831.3,5.01,0.00,22.5,21.8,00.0,31.5,24.3,05.6,0000.0,0000.98,0000.55,0000.43
2022-01-11 11:06:00,,0831.3,5.00,0.00,22.5,21.8,00.0,31.5,24.3,05.6,0000.0,0001.07,0000.58,0000.44
2022-01-11 11:07:00,,0831.4,5.01,0.00,22.5,21.8,00.0,31.5,24.3,05.6,0000.0,0001.13,0000.61,0000.45
2022-01-11 11:08:00,,0831.3,5.00,0.00,22.5,21.8,00.0,31.5,24.3,05.5,0000.0,0001.29,0000.63,0000.46
2022-01-11 11:09:00,,0831.4,5.01,0.00,22.5,21.8,00.0,31.5,24.3,05.6,0000.0,0001.39,0000.65,0000.46
2022-01-11 11:10:00,,0831.4,5.00,0.00,22.5,21.8,00.0,31.5,24.3,05.6,0000.0,0001.54,0000.67,0000.47
2022-01-11 11:11:00,,0831.4,5.01,0.00,22.5,21.8,00.0,31.5,24.2,05.6,0000.0,0001.92,0000.68,0000.49
2022-01-11 11:12:00,,0831.4,5.00,0.00,22.5,21.8,00.0,31.5,24.3,05.4,0000.0,0001.86,0000.66,0000.48
2022-01-11 11:13:00,,0831.4,4.99,0.00,22.5,21.8,00.0,31.5,24.3,05.4,0000.0,0001.79,0000.63,0000.47
2022-01-11 11:14:00,,0831.3,5.01,0.00,22.5,21.8,00.0,31.5,24.3,05.4,0000.0,0001.77,0000.62,0000.47
2022-01-11 11:15:00,,0831.3,4.99,0.00,22.5,21.8,00.0,31.5,24.3,04.9,0000.0,0001.72,0000.59,0000.45
2022-01-11 11:16:00,,0831.3,4.99,0.00,22.5,21.8,00.0,31.5,24.3,04.7,0000.0,0001.68,0000.57,0000.43
2022-01-11 11:17:00,,0831.3,5.02,0.00,22.5,21.8,00.0,31.5,24.3,04.6,0000.0,0001.54,0000.49,0000.39
2022-01-11 11:18:00,,0831.3,5.00,0.00,22.5,21.8,00.0,31.5,24.3,04.4,0000.0,0001.44,0000.44,0000.36
2022-01-11 11:19:00,,0831.3,4.98,0.00,22.5,21.8,00.0,31.5,24.3,04.2,0000.0,0001.26,0000.40,0000.33
2022-01-11 11:20:00,,0831.3,5.01,0.00,22.5,21.8,00.0,31.5,24.3,04.2,0000.0,0001.12,0000.35,0000.30
2022-01-11 11:21:00,,0831.3,4.99,0.00,22.5,21.8,00.0,31.5,24.3,04.4,0000.0,0000.81,0000.27,0000.26
2022-01-11 11:22:00,,0831.3,5.00,0.00,22.5,21.8,00.0,31.5,24.3,04.6,0000.0,0000.28,0000.23,0000.22
2022-01-11 11:23:00,,0831.3,5.01,0.00,22.5,21.8,00.0,31.5,24.2,05.1,0000.0,0000.26,0000.21,0000.20
2022-01-11 11:24:00,,0831.4,4.99,0.00,22.5,21.8,00.0,31.5,24.2,04.9,0000.0,0000.28,0000.21,0000.19
2022-01-11 11:25:00,,0831.3,5.01,0.00,22.5,21.8,00.0,31.5,24.2,04.7,0000.0,0000.29,0000.19,0000.16
2022-01-11 11:26:00,,0831.3,4.99,0.00,22.5,21.8,00.0,31.5,24.2,04.6,0000.0,0000.29,0000.18,0000.15
2022-01-11 11:27:00,,0831.2,4.99,0.00,22.5,21.8,00.0,31.5,24.2,04.4,0000.0,0000.29,0000.18,0000.15
2022-01-11 11:28:00,,0831.2,5.00,0.00,22.5,21.7,00.0,31.5,24.2,04.8,0000.0,0000.36,0000.19,0000.15
2022-01-11 11:29:00,,0831.2,4.99,0.00,22.5,21.7,00.0,31.5,24.2,04.8,0000.0,0000.45,0000.21,0000.16
2022-01-11 11:30:00,,0831.2,5.01,0.00,22.5,21.7,00.0,31.5,24.2,04.4,0000.0,0000.46,0000.22,0000.17
2022-01-11 11:31:00,,0831.2,5.00,0.00,22.5,21.7,00.0,31.5,24.2,04.2,0000.0,0000.46,0000.22,0000.17
2022-01-11 11:32:00,,0831.1,5.01,0.00,22.5,21.7,00.0,31.5,24.3,04.2,0000.0,0000.46,0000.22,0000.17
2022-01-11 11:33:00,,0831.2,5.00,0.00,22.5,21.7,00.0,31.5,24.3,04.2,0000.0,0000.46,0000.22,0000.17
2022-01-11 11:34:00,,0831.2,5.00,0.00,22.5,21.8,00.0,31.5,24.3,04.2,0000.0,0000.45,0000.22,0000.16
2022-01-11 11:35:00,,0831.2,5.00,0.00,22.5,21.8,00.0,31.5,24.2,04.2,0000.0,0000.39,0000.18,0000.14
2022-01-11 11:36:00,,0831.2,4.99,0.00,22.4,21.7,00.0,31.5,24.2,04.2,0000.0,0000.34,0000.16,0000.13
2022-01-11 11:37:00,,0831.2,5.02,0.00,22.4,21.7,00.0,31.5,24.2,04.2,0000.0,0000.31,0000.16,0000.13
2022-01-11 11:38:00,,0831.2,5.00,0.00,22.5,21.8,00.0,31.5,24.2,04.2,0000.0,0000.31,0000.15,0000.13
2022-01-11 11:39:00,,0831.2,4.99,0.00,22.5,21.8,00.0,31.5,24.3,04.2,0000.0,0000.25,0000.15,0000.13
2022-01-11 11:40:00,,0831.2,5.01,0.00,22.5,21.8,00.0,31.5,24.2,04.2,0000.0,0000.14,0000.12,0000.12
2022-01-11 11:41:00,,0831.2,4.99,0.00,22.5,21.8,00.0,31.5,24.2,04.2,0000.0,0000.15,0000.12,0000.11
2022-01-11 11:42:00,,0831.1,5.01,0.00,22.5,21.8,00.0,31.5,24.2,04.3,0000.0,0000.17,0000.13,0000.11
2022-01-11 11:43:00,,0831.1,5.00,0.00,22.5,21.8,00.0,31.5,24.2,04.4,0000.0,0000.17,0000.13,0000.11
2022-01-11 11:44:00,,0831.1,5.01,0.00,22.5,21.8,00.0,31.5,24.2,04.5,0000.0,0000.17,0000.12,0000.11
2022-01-11 11:45:00,,0831.1,5.01,0.00,22.5,21.7,00.0,31.5,24.2,04.4,0000.0,0000.17,0000.12,0000.11
2022-01-11 11:46:00,,0831.1,4.99,0.00,22.5,21.7,00.0,31.5,24.2,04.4,0000.0,0000.21,0000.14,0000.12
2022-01-11 11:47:00,,0831.1,5.00,0.00,22.5,21.7,00.0,31.5,24.2,04.3,0000.0,0000.21,0000.14,0000.12
2022-01-11 11:48:00,,0831.1,5.00,0.00,22.5,22.0,00.0,31.5,24.3,04.3,0000.0,0000.21,0000.14,0000.12
2022-01-11 11:49:00,,0831.1,5.00,0.00,22.6,22.7,00.0,31.5,24.5,04.3,0000.0,0000.22,0000.15,0000.12
2022-01-11 11:50:00,,0831.0,5.00,0.00,22.7,23.0,00.0,31.6,24.7,04.2,0000.0,0000.22,0000.15,0000.12
2022-01-11 11:51:00,,0831.0,4.99,0.00,22.8,22.9,00.0,31.6,24.8,04.2,0000.0,0000.23,0000.15,0000.12
2022-01-11 11:52:00,,0831.0,4.99,0.00,22.8,22.8,00.0,31.6,24.7,04.2,0000.0,0000.20,0000.14,0000.12
2022-01-11 11:53:00,,0831.0,5.01,0.00,22.8,22.7,00.0,31.6,24.7,04.3,0000.0,0000.19,0000.14,0000.12
2022-01-11 11:54:00,,0831.1,5.00,0.00,22.8,22.6,00.0,31.6,24.7,04.4,0000.0,0000.20,0000.14,0000.12
2022-01-11 11:55:00,,0831.0,4.99,0.00,22.8,22.5,00.0,31.7,24.7,04.4,0000.0,0000.22,0000.15,0000.12
2022-01-11 11:56:00,,0831.1,5.01,0.00,22.8,22.4,00.0,31.7,24.6,04.5,0000.0,0000.22,0000.14,0000.12
2022-01-11 11:57:00,,0831.1,5.00,0.00,22.8,22.3,00.0,31.7,24.6,04.5,0000.0,0000.18,0000.13,0000.12
2022-01-11 11:58:00,,0831.0,5.00,0.00,22.8,22.3,00.0,31.7,24.6,04.5,0000.0,0000.17,0000.13,0000.11
2022-01-11 11:59:00,,0831.0,5.01,0.00,22.8,22.3,00.0,31.7,24.6,04.5,0000.0,0000.17,0000.13,0000.12
